Time,TemperatureF,DewpointF,PressureIn,WindDirection,WindDirectionDegrees,WindSpeedMPH,WindSpeedGustMPH,Humidity,HourlyPrecipIn,Conditions,Clouds,dailyrainin,SoftwareType,DateUTC
2013-04-06 00:04:00,58.3,48.2,29.86,ESE,107,8.0,18.0,69,0.00,,---,0.00,VWS V14.01,2013-04-06 05:04:00,
2013-04-06 00:09:00,58.2,48.1,29.86,ESE,122,15.0,19.0,69,0.00,,---,0.00,VWS V14.01,2013-04-06 05:09:00,
2013-04-06 00:14:00,58.0,47.9,29.86,SE,127,14.0,19.0,69,0.00,,---,0.00,VWS V14.01,2013-04-06 05:14:00,
2013-04-06 00:20:00,57.9,48.2,29.85,SE,139,13.0,19.0,70,0.00,,---,0.00,VWS V14.01,2013-04-06 05:20:00,
2013-04-06 00:25:00,57.8,48.1,29.85,ESE,120,11.0,20.0,70,0.00,,---,0.00,VWS V14.01,2013-04-06 05:25:00,
2013-04-06 00:30:00,57.7,48.4,29.85,SE,132,17.0,20.0,71,0.00,,---,0.00,VWS V14.01,2013-04-06 05:30:00,
2013-04-06 00:35:00,57.8,48.5,29.85,ESE,111,12.0,17.0,71,0.00,,---,0.00,VWS V14.01,2013-04-06 05:35:00,
2013-04-06 00:40:00,57.9,48.2,29.85,SE,129,17.0,22.0,70,0.00,,---,0.00,VWS V14.01,2013-04-06 05:40:00,
2013-04-06 00:46:00,58.0,48.3,29.85,SE,130,16.0,23.0,70,0.00,,---,0.00,VWS V14.01,2013-04-06 05:46:00,
2013-04-06 00:51:00,58.2,48.5,29.85,SE,142,13.0,23.0,70,0.00,,---,0.00,VWS V14.01,2013-04-06 05:51:00,
2013-04-06 00:56:00,58.2,48.5,29.85,ESE,115,16.0,23.0,70,0.00,,---,0.00,VWS V14.01,2013-04-06 05:56:00,
2013-04-06 01:01:00,58.2,48.5,29.85,SE,127,14.0,16.0,70,0.00,,---,0.00,VWS V14.01,2013-04-06 06:01:00,
2013-04-06 01:07:00,58.3,48.6,29.85,ESE,111,14.0,21.0,70,0.00,,---,0.00,VWS V14.01,2013-04-06 06:07:00,
2013-04-06 01:12:00,58.3,48.6,29.85,SE,129,12.0,21.0,70,0.00,,---,0.00,VWS V14.01,2013-04-06 06:12:00,
2013-04-06 01:17:00,58.3,48.6,29.85,ESE,115,16.0,21.0,70,0.00,,---,0.00,VWS V14.01,2013-04-06 06:17:00,
2013-04-06 01:22:00,58.4,48.7,29.85,ESE,115,16.0,22.0,70,0.00,,---,0.00,VWS V14.01,2013-04-06 06:22:00,
2013-04-06 01:27:00,58.6,48.5,29.84,ESE,108,12.0,22.0,69,0.00,,---,0.00,VWS V14.01,2013-04-06 06:27:00,
2013-04-06 01:32:00,58.6,48.5,29.84,ESE,120,12.0,18.0,69,0.00,,---,0.00,VWS V14.01,2013-04-06 06:32:00,
2013-04-06 01:37:00,58.5,48.8,29.84,ESE,117,13.0,19.0,70,0.00,,---,0.00,VWS V14.01,2013-04-06 06:37:00,
2013-04-06 01:42:00,58.4,48.7,29.84,SE,131,8.0,19.0,70,0.00,,---,0.00,VWS V14.01,2013-04-06 06:42:00,
2013-04-06 01:47:00,58.4,48.7,29.84,ESE,117,13.0,19.0,70,0.00,,---,0.00,VWS V14.01,2013-04-06 06:47:00,
2013-04-06 01:52:00,58.3,48.6,29.84,ESE,117,9.0,20.0,70,0.00,,---,0.00,VWS V14.01,2013-04-06 06:52:00,
2013-04-06 01:57:00,58.2,48.5,29.84,ESE,110,14.0,20.0,70,0.00,,---,0.00,VWS V14.01,2013-04-06 06:57:00,
2013-04-06 02:03:00,58.0,48.7,29.84,ESE,120,9.0,12.0,71,0.00,,---,0.00,VWS V14.01,2013-04-06 07:03:00,
2013-04-06 02:08:00,57.9,48.6,29.84,SE,124,14.0,14.0,71,0.00,,---,0.00,VWS V14.01,2013-04-06 07:08:00,
2013-04-06 02:13:00,57.8,48.5,29.84,SE,132,10.0,14.0,71,0.00,,---,0.00,VWS V14.01,2013-04-06 07:13:00,
2013-04-06 02:18:00,57.6,48.7,29.84,SSE,157,9.0,14.0,72,0.00,,---,0.00,VWS V14.01,2013-04-06 07:18:00,
2013-04-06 02:23:00,57.5,48.6,29.84,SE,129,7.0,14.0,72,0.00,,---,0.00,VWS V14.01,2013-04-06 07:23:00,
2013-04-06 02:28:00,57.4,48.5,29.84,SSE,150,6.0,14.0,72,0.00,,---,0.00,VWS V14.01,2013-04-06 07:28:00,
2013-04-06 02:33:00,57.4,48.5,29.84,SE,124,11.0,13.0,72,0.00,,---,0.00,VWS V14.01,2013-04-06 07:33:00,
2013-04-06 02:39:00,57.4,48.5,29.84,ESE,103,6.0,13.0,72,0.00,,---,0.00,VWS V14.01,2013-04-06 07:39:00,
2013-04-06 02:44:00,57.4,48.5,29.84,SE,129,9.0,13.0,72,0.00,,---,0.00,VWS V14.01,2013-04-06 07:44:00,
2013-04-06 02:50:00,57.4,48.5,29.83,SE,124,7.0,13.0,72,0.00,,---,0.00,VWS V14.01,2013-04-06 07:50:00,
2013-04-06 02:55:00,57.3,48.4,29.83,SE,134,9.0,14.0,72,0.00,,---,0.00,VWS V14.01,2013-04-06 07:55:00,
2013-04-06 03:00:00,57.2,48.3,29.83,ESE,117,6.0,14.0,72,0.00,,---,0.00,VWS V14.01,2013-04-06 08:00:00,
2013-04-06 03:05:00,57.2,48.6,29.83,SE,130,7.0,12.0,73,0.00,,---,0.00,VWS V14.01,2013-04-06 08:05:00,
2013-04-06 03:10:00,57.1,48.5,29.83,SE,135,7.0,12.0,73,0.00,,---,0.00,VWS V14.01,2013-04-06 08:10:00,
2013-04-06 03:15:00,57.0,48.4,29.83,East,95,8.0,12.0,73,0.00,,---,0.00,VWS V14.01,2013-04-06 08:15:00,
2013-04-06 03:20:00,56.9,48.3,29.82,East,100,6.0,12.0,73,0.00,,---,0.00,VWS V14.01,2013-04-06 08:20:00,
2013-04-06 03:25:00,56.8,48.2,29.82,SE,124,7.0,12.0,73,0.00,,---,0.00,VWS V14.01,2013-04-06 08:25:00,
2013-04-06 03:30:00,56.5,48.3,29.82,SE,135,10.0,12.0,74,0.00,,---,0.00,VWS V14.01,2013-04-06 08:30:00,
2013-04-06 03:35:00,56.3,48.5,29.81,SE,134,9.0,12.0,75,0.00,,---,0.00,VWS V14.01,2013-04-06 08:35:00,
2013-04-06 03:40:00,56.3,48.5,29.81,SE,143,10.0,16.0,75,0.00,,---,0.00,VWS V14.01,2013-04-06 08:40:00,
2013-04-06 03:45:00,56.2,48.4,29.80,ESE,120,7.0,16.0,75,0.00,,---,0.00,VWS V14.01,2013-04-06 08:45:00,
2013-04-06 03:50:00,56.1,48.3,29.81,ESE,122,7.0,16.0,75,0.00,,---,0.00,VWS V14.01,2013-04-06 08:50:00,
2013-04-06 03:56:00,56.1,48.3,29.80,SE,134,11.0,16.0,75,0.00,,---,0.00,VWS V14.01,2013-04-06 08:56:00,
2013-04-06 04:01:00,56.0,48.2,29.80,ESE,112,11.0,16.0,75,0.00,,---,0.00,VWS V14.01,2013-04-06 09:01:00,
2013-04-06 04:06:00,56.0,48.2,29.80,SE,131,7.0,15.0,75,0.00,,---,0.00,VWS V14.01,2013-04-06 09:06:00,
2013-04-06 04:11:00,55.9,48.1,29.80,ESE,110,6.0,15.0,75,0.00,,---,0.00,VWS V14.01,2013-04-06 09:11:00,
2013-04-06 04:16:00,55.8,48.0,29.79,ESE,112,11.0,15.0,75,0.00,,---,0.00,VWS V14.01,2013-04-06 09:16:00,
2013-04-06 04:22:00,55.9,48.1,29.79,SE,130,5.0,15.0,75,0.00,,---,0.00,VWS V14.01,2013-04-06 09:22:00,
2013-04-06 04:27:00,56.0,48.2,29.79,ESE,122,10.0,15.0,75,0.00,,---,0.00,VWS V14.01,2013-04-06 09:27:00,
2013-04-06 04:32:00,56.0,48.2,29.79,SE,138,10.0,12.0,75,0.00,,---,0.00,VWS V14.01,2013-04-06 09:32:00,
2013-04-06 04:37:00,56.0,48.2,29.80,SE,124,8.0,17.0,75,0.00,,---,0.00,VWS V14.01,2013-04-06 09:37:00,
2013-04-06 04:42:00,56.0,48.2,29.80,ESE,110,12.0,17.0,75,0.00,,---,0.00,VWS V14.01,2013-04-06 09:42:00,
2013-04-06 04:47:00,55.9,48.1,29.79,SE,129,7.0,17.0,75,0.00,,---,0.00,VWS V14.01,2013-04-06 09:47:00,
2013-04-06 04:52:00,55.8,48.0,29.79,SE,131,7.0,17.0,75,0.00,,---,0.00,VWS V14.01,2013-04-06 09:52:00,
2013-04-06 04:57:00,55.8,48.0,29.79,SE,132,10.0,17.0,75,0.00,,---,0.00,VWS V14.01,2013-04-06 09:57:00,
2013-04-06 05:03:00,55.7,47.9,29.79,SE,146,11.0,14.0,75,0.00,,---,0.00,VWS V14.01,2013-04-06 10:03:00,
2013-04-06 05:08:00,55.6,47.8,29.79,SE,141,9.0,14.0,75,0.00,,---,0.00,VWS V14.01,2013-04-06 10:08:00,
2013-04-06 05:13:00,55.3,47.9,29.78,ESE,120,7.0,14.0,76,0.00,,---,0.00,VWS V14.01,2013-04-06 10:13:00,
2013-04-06 05:18:00,55.2,47.8,29.79,ESE,115,8.0,14.0,76,0.00,,---,0.00,VWS V14.01,2013-04-06 10:18:00,
2013-04-06 05:24:00,55.0,47.9,29.78,ESE,120,10.0,15.0,77,0.00,,---,0.00,VWS V14.01,2013-04-06 10:24:00,
2013-04-06 05:29:00,54.8,47.7,29.78,SE,128,9.0,15.0,77,0.00,,---,0.00,VWS V14.01,2013-04-06 10:29:00,
2013-04-06 05:34:00,54.7,47.6,29.77,ESE,117,13.0,16.0,77,0.00,,---,0.00,VWS V14.01,2013-04-06 10:34:00,
2013-04-06 05:39:00,54.7,47.6,29.78,SE,140,7.0,16.0,77,0.00,,---,0.00,VWS V14.01,2013-04-06 10:39:00,
2013-04-06 05:44:00,54.6,47.5,29.78,SE,134,8.0,16.0,77,0.00,,---,0.00,VWS V14.01,2013-04-06 10:44:00,
2013-04-06 05:50:00,54.4,47.7,29.77,SE,139,9.0,16.0,78,0.00,,---,0.00,VWS V14.01,2013-04-06 10:50:00,
2013-04-06 05:55:00,54.2,47.5,29.77,ESE,123,10.0,16.0,78,0.00,,---,0.00,VWS V14.01,2013-04-06 10:55:00,
2013-04-06 06:00:00,54.1,47.4,29.77,SE,124,10.0,16.0,78,0.00,,---,0.00,VWS V14.01,2013-04-06 11:00:00,
2013-04-06 06:05:00,53.9,47.5,29.78,SE,132,14.0,16.0,79,0.00,,---,0.00,VWS V14.01,2013-04-06 11:05:00,
2013-04-06 06:10:00,53.7,47.3,29.78,ESE,120,11.0,16.0,79,0.00,,---,0.00,VWS V14.01,2013-04-06 11:10:00,
2013-04-06 06:15:00,53.5,47.2,29.78,SE,125,5.0,16.0,79,0.00,,---,0.00,VWS V14.01,2013-04-06 11:15:00,
2013-04-06 06:20:00,53.4,47.1,29.79,SE,128,8.0,16.0,79,0.00,,---,0.00,VWS V14.01,2013-04-06 11:20:00,
2013-04-06 06:25:00,53.4,47.1,29.79,ESE,117,8.0,16.0,79,0.00,,---,0.00,VWS V14.01,2013-04-06 11:25:00,
2013-04-06 06:30:00,53.3,47.0,29.79,SE,125,8.0,16.0,79,0.00,,---,0.00,VWS V14.01,2013-04-06 11:30:00,
2013-04-06 06:35:00,53.2,46.9,29.80,ESE,113,5.0,12.0,79,0.00,,---,0.00,VWS V14.01,2013-04-06 11:35:00,
2013-04-06 06:40:00,53.1,47.1,29.80,SE,136,7.0,12.0,80,0.00,,---,0.00,VWS V14.01,2013-04-06 11:40:00,
2013-04-06 06:45:00,53.0,47.0,29.80,ESE,120,8.0,14.0,80,0.00,,---,0.00,VWS V14.01,2013-04-06 11:45:00,
2013-04-06 06:50:00,52.8,46.8,29.79,ESE,120,9.0,14.0,80,0.00,,---,0.00,VWS V14.01,2013-04-06 11:50:00,
2013-04-06 06:55:00,52.7,46.7,29.80,SE,135,6.0,14.0,80,0.00,,---,0.00,VWS V14.01,2013-04-06 11:55:00,
2013-04-06 07:00:00,52.8,46.8,29.80,ESE,115,10.0,14.0,80,0.00,,---,0.00,VWS V14.01,2013-04-06 12:00:00,
2013-04-06 07:06:00,52.8,46.8,29.80,East,96,8.0,14.0,80,0.00,,---,0.00,VWS V14.01,2013-04-06 12:06:00,
2013-04-06 07:11:00,52.9,46.9,29.80,SE,134,9.0,14.0,80,0.00,,---,0.00,VWS V14.01,2013-04-06 12:11:00,
2013-04-06 07:16:00,52.8,46.8,29.79,ESE,103,13.0,16.0,80,0.00,,---,0.00,VWS V14.01,2013-04-06 12:16:00,
2013-04-06 07:21:00,52.8,46.8,29.79,SE,140,11.0,16.0,80,0.00,,---,0.00,VWS V14.01,2013-04-06 12:21:00,
2013-04-06 07:27:00,52.8,46.8,29.79,SE,128,11.0,17.0,80,0.00,,---,0.00,VWS V14.01,2013-04-06 12:27:00,
2013-04-06 07:32:00,52.8,46.8,29.79,East,101,16.0,16.0,80,0.00,,---,0.00,VWS V14.01,2013-04-06 12:32:00,
2013-04-06 07:37:00,52.9,46.9,29.79,East,89,10.0,16.0,80,0.00,,---,0.00,VWS V14.01,2013-04-06 12:37:00,
2013-04-06 07:42:00,53.2,47.2,29.79,ESE,113,8.0,16.0,80,0.00,,---,0.00,VWS V14.01,2013-04-06 12:42:00,
2013-04-06 07:47:00,53.3,47.3,29.79,SE,128,9.0,16.0,80,0.00,,---,0.00,VWS V14.01,2013-04-06 12:47:00,
2013-04-06 07:52:00,53.4,47.4,29.80,SE,139,11.0,17.0,80,0.00,,---,0.00,VWS V14.01,2013-04-06 12:52:00,
2013-04-06 07:57:00,53.6,47.3,29.80,ESE,120,8.0,17.0,79,0.00,,---,0.00,VWS V14.01,2013-04-06 12:57:00,
2013-04-06 08:03:00,53.7,47.3,29.80,ESE,120,10.0,15.0,79,0.00,,---,0.00,VWS V14.01,2013-04-06 13:03:00,
2013-04-06 08:08:00,53.9,47.5,29.80,SE,131,10.0,15.0,79,0.00,,---,0.00,VWS V14.01,2013-04-06 13:08:00,
2013-04-06 08:13:00,54.2,47.8,29.81,SE,146,8.0,16.0,79,0.00,,---,0.00,VWS V14.01,2013-04-06 13:13:00,
2013-04-06 08:18:00,54.5,47.8,29.81,ESE,111,8.0,16.0,78,0.00,,---,0.00,VWS V14.01,2013-04-06 13:18:00,
2013-04-06 08:23:00,55.0,48.3,29.82,ESE,117,5.0,16.0,78,0.00,,---,0.00,VWS V14.01,2013-04-06 13:23:00,
2013-04-06 08:29:00,55.5,48.1,29.81,SE,127,8.0,16.0,76,0.00,,---,0.00,VWS V14.01,2013-04-06 13:29:00,
2013-04-06 08:34:00,56.1,48.3,29.82,SE,131,9.0,11.0,75,0.00,,---,0.00,VWS V14.01,2013-04-06 13:34:00,
2013-04-06 08:39:00,56.6,48.4,29.81,SE,138,7.0,14.0,74,0.00,,---,0.00,VWS V14.01,2013-04-06 13:39:00,
2013-04-06 08:44:00,57.1,48.5,29.81,SE,129,7.0,14.0,73,0.00,,---,0.00,VWS V14.01,2013-04-06 13:44:00,
2013-04-06 08:50:00,57.6,48.3,29.81,SE,134,14.0,16.0,71,0.00,,---,0.00,VWS V14.01,2013-04-06 13:50:00,
2013-04-06 08:55:00,58.1,48.8,29.81,SSE,149,11.0,17.0,71,0.00,,---,0.00,VWS V14.01,2013-04-06 13:55:00,
2013-04-06 09:00:00,58.4,48.7,29.80,SE,143,12.0,19.0,70,0.00,,---,0.00,VWS V14.01,2013-04-06 14:00:00,
2013-04-06 09:05:00,58.7,48.6,29.81,SE,130,9.0,18.0,69,0.00,,---,0.00,VWS V14.01,2013-04-06 14:05:00,
2013-04-06 09:10:00,59.2,48.7,29.81,SSE,156,16.0,18.0,68,0.00,,---,0.00,VWS V14.01,2013-04-06 14:10:00,
2013-04-06 09:15:00,59.6,48.6,29.80,SSE,158,13.0,18.0,67,0.00,,---,0.00,VWS V14.01,2013-04-06 14:15:00,
2013-04-06 09:20:00,59.9,48.5,29.81,South,176,16.0,18.0,66,0.00,,---,0.00,VWS V14.01,2013-04-06 14:20:00,
2013-04-06 09:26:00,60.2,48.8,29.81,SE,124,13.0,19.0,66,0.00,,---,0.00,VWS V14.01,2013-04-06 14:26:00,
2013-04-06 09:31:00,60.5,49.1,29.80,SSE,156,13.0,13.0,66,0.00,,---,0.00,VWS V14.01,2013-04-06 14:31:00,
2013-04-06 09:36:00,60.8,49.4,29.80,South,187,8.0,16.0,66,0.00,,---,0.00,VWS V14.01,2013-04-06 14:36:00,
2013-04-06 09:41:00,61.0,49.6,29.80,SE,141,11.0,20.0,66,0.00,,---,0.00,VWS V14.01,2013-04-06 14:41:00,
2013-04-06 09:46:00,61.4,50.0,29.80,SSW,195,8.0,20.0,66,0.00,,---,0.00,VWS V14.01,2013-04-06 14:46:00,
2013-04-06 09:52:00,62.2,49.5,29.81,SE,139,10.0,20.0,63,0.00,,---,0.00,VWS V14.01,2013-04-06 14:52:00,
2013-04-06 09:57:00,62.7,49.1,29.80,SSE,165,8.0,20.0,61,0.00,,---,0.00,VWS V14.01,2013-04-06 14:57:00,
2013-04-06 10:02:00,63.2,49.5,29.81,SW,214,13.0,13.0,61,0.00,,---,0.00,VWS V14.01,2013-04-06 15:02:00,
2013-04-06 10:07:00,63.8,49.7,29.81,SSE,149,7.0,16.0,60,0.00,,---,0.00,VWS V14.01,2013-04-06 15:07:00,
2013-04-06 10:12:00,64.5,49.9,29.81,ESE,113,9.0,17.0,59,0.00,,---,0.00,VWS V14.01,2013-04-06 15:12:00,
2013-04-06 10:17:00,64.9,48.4,29.81,SSW,194,11.0,17.0,55,0.00,,---,0.00,VWS V14.01,2013-04-06 15:17:00,
2013-04-06 10:23:00,65.4,48.8,29.81,South,186,8.0,17.0,55,0.00,,---,0.00,VWS V14.01,2013-04-06 15:23:00,
2013-04-06 10:28:00,65.6,48.0,29.81,South,180,7.0,17.0,53,0.00,,---,0.00,VWS V14.01,2013-04-06 15:28:00,
2013-04-06 10:33:00,65.6,48.0,29.81,South,174,7.0,15.0,53,0.00,,---,0.00,VWS V14.01,2013-04-06 15:33:00,
2013-04-06 10:38:00,66.0,49.4,29.81,SSW,201,5.0,16.0,55,0.00,,---,0.00,VWS V14.01,2013-04-06 15:38:00,
2013-04-06 10:43:00,66.3,48.7,29.81,SSE,152,8.0,16.0,53,0.00,,---,0.00,VWS V14.01,2013-04-06 15:43:00,
2013-04-06 10:48:00,66.7,49.5,29.81,SSW,195,8.0,16.0,54,0.00,,---,0.00,VWS V14.01,2013-04-06 15:48:00,
2013-04-06 10:53:00,67.0,48.3,29.81,SSE,153,4.0,16.0,51,0.00,,---,0.00,VWS V14.01,2013-04-06 15:53:00,
2013-04-06 10:58:00,67.3,49.1,29.80,SSW,204,12.0,16.0,52,0.00,,---,0.00,VWS V14.01,2013-04-06 15:58:00,
2013-04-06 11:03:00,67.6,49.4,29.80,SSE,167,7.0,11.0,52,0.00,,---,0.00,VWS V14.01,2013-04-06 16:03:00,
2013-04-06 11:09:00,68.0,49.2,29.81,SW,228,12.0,13.0,51,0.00,,---,0.00,VWS V14.01,2013-04-06 16:09:00,
2013-04-06 11:14:00,68.8,50.5,29.81,SSW,201,10.0,13.0,52,0.00,,---,0.00,VWS V14.01,2013-04-06 16:14:00,
2013-04-06 11:19:00,68.7,48.8,29.80,SW,219,9.0,13.0,49,0.00,,---,0.00,VWS V14.01,2013-04-06 16:19:00,
2013-04-06 11:24:00,69.2,49.8,29.80,SSE,153,5.0,13.0,50,0.00,,---,0.00,VWS V14.01,2013-04-06 16:24:00,
2013-04-06 11:29:00,69.8,49.8,29.80,SSE,160,8.0,13.0,49,0.00,,---,0.00,VWS V14.01,2013-04-06 16:29:00,
2013-04-06 11:34:00,70.0,50.0,29.81,SE,135,7.0,10.0,49,0.00,,---,0.00,VWS V14.01,2013-04-06 16:34:00,
2013-04-06 11:39:00,70.2,50.7,29.80,SSW,192,5.0,10.0,50,0.00,,---,0.00,VWS V14.01,2013-04-06 16:39:00,
2013-04-06 11:44:00,70.5,49.3,29.80,SSE,163,3.0,12.0,47,0.00,,---,0.00,VWS V14.01,2013-04-06 16:44:00,
2013-04-06 11:49:00,71.0,49.8,29.80,SSE,150,5.0,12.0,47,0.00,,---,0.00,VWS V14.01,2013-04-06 16:49:00,
2013-04-06 11:55:00,71.7,49.2,29.80,SSW,211,3.0,12.0,45,0.00,,---,0.00,VWS V14.01,2013-04-06 16:55:00,
2013-04-06 12:00:00,72.3,49.2,29.81,WSW,238,4.0,12.0,44,0.00,,---,0.00,VWS V14.01,2013-04-06 17:00:00,
2013-04-06 12:05:00,72.5,48.8,29.80,SW,218,5.0,9.0,43,0.00,,---,0.00,VWS V14.01,2013-04-06 17:05:00,
2013-04-06 12:10:00,72.8,48.4,29.80,SSW,198,4.0,9.0,42,0.00,,---,0.00,VWS V14.01,2013-04-06 17:10:00,
2013-04-06 12:15:00,72.9,48.5,29.80,SW,219,3.0,9.0,42,0.00,,---,0.00,VWS V14.01,2013-04-06 17:15:00,
2013-04-06 12:20:00,73.0,47.9,29.80,WSW,240,5.0,9.0,41,0.00,,---,0.00,VWS V14.01,2013-04-06 17:20:00,
2013-04-06 12:25:00,73.6,49.1,29.80,SW,214,5.0,9.0,42,0.00,,---,0.00,VWS V14.01,2013-04-06 17:25:00,
2013-04-06 12:30:00,74.5,47.2,29.80,ESE,117,3.0,9.0,38,0.00,,---,0.00,VWS V14.01,2013-04-06 17:30:00,
2013-04-06 12:35:00,74.6,47.3,29.80,SE,134,3.0,7.0,38,0.00,,---,0.00,VWS V14.01,2013-04-06 17:35:00,
2013-04-06 12:41:00,74.8,46.8,29.80,SE,139,4.0,7.0,37,0.00,,---,0.00,VWS V14.01,2013-04-06 17:41:00,
2013-04-06 12:46:00,74.8,46.8,29.80,SE,134,2.0,7.0,37,0.00,,---,0.00,VWS V14.01,2013-04-06 17:46:00,
2013-04-06 12:51:00,75.1,46.3,29.80,SSE,166,2.0,7.0,36,0.00,,---,0.00,VWS V14.01,2013-04-06 17:51:00,
2013-04-06 12:57:00,75.7,47.6,29.80,ESE,107,3.0,7.0,37,0.00,,---,0.00,VWS V14.01,2013-04-06 17:57:00,
2013-04-06 13:02:00,75.4,46.6,29.80,ESE,104,2.0,5.0,36,0.00,,---,0.00,VWS V14.01,2013-04-06 18:02:00,
2013-04-06 13:07:00,75.7,46.9,29.80,NE,56,2.0,5.0,36,0.00,,---,0.00,VWS V14.01,2013-04-06 18:07:00,
2013-04-06 13:12:00,76.0,47.2,29.80,SW,231,3.0,5.0,36,0.00,,---,0.00,VWS V14.01,2013-04-06 18:12:00,
2013-04-06 13:17:00,76.7,47.0,29.80,SW,224,4.0,6.0,35,0.00,,---,0.00,VWS V14.01,2013-04-06 18:17:00,
2013-04-06 13:22:00,76.6,47.7,29.80,ESE,117,4.0,6.0,36,0.00,,---,0.00,VWS V14.01,2013-04-06 18:22:00,
2013-04-06 13:27:00,77.1,47.4,29.80,SW,226,2.0,6.0,35,0.00,,---,0.00,VWS V14.01,2013-04-06 18:27:00,
2013-04-06 13:32:00,77.0,47.3,29.79,ESE,111,3.0,6.0,35,0.00,,---,0.00,VWS V14.01,2013-04-06 18:32:00,
2013-04-06 13:37:00,76.5,47.6,29.79,SE,139,2.0,6.0,36,0.00,,---,0.00,VWS V14.01,2013-04-06 18:37:00,
2013-04-06 13:42:00,76.5,47.6,29.79,ENE,66,2.0,7.0,36,0.00,,---,0.00,VWS V14.01,2013-04-06 18:42:00,
2013-04-06 13:47:00,76.3,48.1,29.79,East,80,6.0,8.0,37,0.00,,---,0.00,VWS V14.01,2013-04-06 18:47:00,
2013-04-06 13:52:00,76.4,49.6,29.79,ENE,77,3.0,8.0,39,0.00,,---,0.00,VWS V14.01,2013-04-06 18:52:00,
2013-04-06 13:58:00,76.5,48.3,29.79,NNW,347,7.0,8.0,37,0.00,,---,0.00,VWS V14.01,2013-04-06 18:58:00,
2013-04-06 14:03:00,76.1,47.2,29.79,NE,53,5.0,6.0,36,0.00,,---,0.00,VWS V14.01,2013-04-06 19:03:00,
2013-04-06 14:08:00,75.9,47.8,29.79,NNW,343,8.0,11.0,37,0.00,,---,0.00,VWS V14.01,2013-04-06 19:08:00,
2013-04-06 14:13:00,75.4,48.0,29.79,NNW,338,5.0,11.0,38,0.00,,---,0.00,VWS V14.01,2013-04-06 19:13:00,
2013-04-06 14:18:00,75.2,47.9,29.78,NE,37,8.0,11.0,38,0.00,,---,0.00,VWS V14.01,2013-04-06 19:18:00,
2013-04-06 14:23:00,75.2,47.9,29.78,NNE,28,3.0,11.0,38,0.00,,---,0.00,VWS V14.01,2013-04-06 19:23:00,
2013-04-06 14:28:00,75.2,48.6,29.78,NNE,22,6.0,11.0,39,0.00,,---,0.00,VWS V14.01,2013-04-06 19:28:00,
2013-04-06 14:33:00,75.8,49.8,29.78,NNW,345,1.0,6.0,40,0.00,,---,0.00,VWS V14.01,2013-04-06 19:33:00,
2013-04-06 14:38:00,76.8,49.3,29.77,NNW,335,7.0,9.0,38,0.00,,---,0.00,VWS V14.01,2013-04-06 19:38:00,
2013-04-06 14:44:00,76.8,48.6,29.77,SE,127,2.0,11.0,37,0.00,,---,0.00,VWS V14.01,2013-04-06 19:44:00,
2013-04-06 14:49:00,76.5,48.3,29.77,North,352,4.0,11.0,37,0.00,,---,0.00,VWS V14.01,2013-04-06 19:49:00,
2013-04-06 14:54:00,76.5,49.7,29.77,East,89,2.0,11.0,39,0.00,,---,0.00,VWS V14.01,2013-04-06 19:54:00,
2013-04-06 15:00:00,76.3,48.1,29.77,NE,43,5.0,11.0,37,0.00,,---,0.00,VWS V14.01,2013-04-06 20:00:00,
2013-04-06 15:05:00,76.2,48.8,29.77,North,4,0.0,4.0,38,0.00,,---,0.00,VWS V14.01,2013-04-06 20:05:00,
2013-04-06 15:10:00,77.0,49.5,29.76,NNW,336,0.0,4.0,38,0.00,,---,0.00,VWS V14.01,2013-04-06 20:10:00,
2013-04-06 15:15:00,77.1,48.1,29.76,NNE,31,3.0,8.0,36,0.00,,---,0.00,VWS V14.01,2013-04-06 20:15:00,
2013-04-06 15:20:00,76.9,49.4,29.76,NNW,339,4.0,8.0,38,0.00,,---,0.00,VWS V14.01,2013-04-06 20:20:00,
2013-04-06 15:26:00,77.0,48.8,29.76,NW,314,3.0,8.0,37,0.00,,---,0.00,VWS V14.01,2013-04-06 20:26:00,
2013-04-06 15:31:00,77.1,49.6,29.75,NW,319,3.0,4.0,38,0.00,,---,0.00,VWS V14.01,2013-04-06 20:31:00,
2013-04-06 15:36:00,76.9,48.7,29.75,NW,307,3.0,8.0,37,0.00,,---,0.00,VWS V14.01,2013-04-06 20:36:00,
2013-04-06 15:41:00,77.0,48.8,29.75,NNW,345,3.0,8.0,37,0.00,,---,0.00,VWS V14.01,2013-04-06 20:41:00,
2013-04-06 15:47:00,77.1,48.8,29.75,NE,34,6.0,8.0,37,0.00,,---,0.00,VWS V14.01,2013-04-06 20:47:00,
2013-04-06 15:52:00,77.0,48.8,29.74,ENE,73,2.0,8.0,37,0.00,,---,0.00,VWS V14.01,2013-04-06 20:52:00,
2013-04-06 15:57:00,77.1,48.8,29.74,NNW,347,3.0,8.0,37,0.00,,---,0.00,VWS V14.01,2013-04-06 20:57:00,
2013-04-06 16:02:00,77.0,48.8,29.74,North,356,2.0,9.0,37,0.00,,---,0.00,VWS V14.01,2013-04-06 21:02:00,
2013-04-06 16:07:00,77.3,49.7,29.74,NNE,13,1.0,10.0,38,0.00,,---,0.00,VWS V14.01,2013-04-06 21:07:00,
2013-04-06 16:13:00,77.4,49.1,29.74,NE,34,4.0,10.0,37,0.00,,---,0.00,VWS V14.01,2013-04-06 21:13:00,
2013-04-06 16:18:00,77.5,49.9,29.74,NE,40,7.0,10.0,38,0.00,,---,0.00,VWS V14.01,2013-04-06 21:18:00,
2013-04-06 16:23:00,77.4,49.8,29.75,NE,39,7.0,10.0,38,0.00,,---,0.00,VWS V14.01,2013-04-06 21:23:00,
2013-04-06 16:28:00,77.2,49.7,29.75,East,79,7.0,10.0,38,0.00,,---,0.00,VWS V14.01,2013-04-06 21:28:00,
2013-04-06 16:33:00,77.2,50.3,29.75,ENE,63,4.0,4.0,39,0.00,,---,0.00,VWS V14.01,2013-04-06 21:33:00,
2013-04-06 16:38:00,77.7,50.1,29.75,NE,44,7.0,9.0,38,0.00,,---,0.00,VWS V14.01,2013-04-06 21:38:00,
2013-04-06 16:43:00,77.4,49.1,29.75,ENE,73,5.0,9.0,37,0.00,,---,0.00,VWS V14.01,2013-04-06 21:43:00,
2013-04-06 16:48:00,77.5,49.2,29.74,NE,44,1.0,9.0,37,0.00,,---,0.00,VWS V14.01,2013-04-06 21:48:00,
2013-04-06 16:53:00,78.2,49.8,29.74,NNE,28,2.0,9.0,37,0.00,,---,0.00,VWS V14.01,2013-04-06 21:53:00,
2013-04-06 16:59:00,77.7,49.4,29.74,ENE,65,5.0,9.0,37,0.00,,---,0.00,VWS V14.01,2013-04-06 21:59:00,
2013-04-06 17:04:00,77.6,50.0,29.74,ESE,103,3.0,5.0,38,0.00,,---,0.00,VWS V14.01,2013-04-06 22:04:00,
2013-04-06 17:09:00,77.2,49.7,29.74,NNE,33,5.0,6.0,38,0.00,,---,0.00,VWS V14.01,2013-04-06 22:09:00,
2013-04-06 17:14:00,77.1,49.6,29.74,NE,53,3.0,7.0,38,0.00,,---,0.00,VWS V14.01,2013-04-06 22:14:00,
2013-04-06 17:20:00,77.4,51.2,29.74,NNE,29,4.0,7.0,40,0.00,,---,0.00,VWS V14.01,2013-04-06 22:20:00,
2013-04-06 17:25:00,77.3,49.7,29.74,NNE,32,3.0,8.0,38,0.00,,---,0.00,VWS V14.01,2013-04-06 22:25:00,
2013-04-06 17:30:00,77.5,49.9,29.74,NNE,31,3.0,8.0,38,0.00,,---,0.00,VWS V14.01,2013-04-06 22:30:00,
2013-04-06 17:35:00,77.9,50.3,29.74,NE,39,2.0,5.0,38,0.00,,---,0.00,VWS V14.01,2013-04-06 22:35:00,
2013-04-06 17:41:00,78.0,50.4,29.74,ENE,61,2.0,7.0,38,0.00,,---,0.00,VWS V14.01,2013-04-06 22:41:00,
2013-04-06 17:46:00,77.4,49.8,29.74,NNE,30,5.0,10.0,38,0.00,,---,0.00,VWS V14.01,2013-04-06 22:46:00,
2013-04-06 17:51:00,77.2,50.3,29.74,ENE,61,1.0,10.0,39,0.00,,---,0.00,VWS V14.01,2013-04-06 22:51:00,
2013-04-06 17:56:00,77.0,50.2,29.74,NE,44,5.0,10.0,39,0.00,,---,0.00,VWS V14.01,2013-04-06 22:56:00,
2013-04-06 18:01:00,76.8,52.0,29.74,NE,41,7.0,8.0,42,0.00,,---,0.00,VWS V14.01,2013-04-06 23:01:00,
2013-04-06 18:06:00,76.4,51.0,29.74,NE,38,4.0,8.0,41,0.00,,---,0.00,VWS V14.01,2013-04-06 23:06:00,
2013-04-06 18:12:00,75.9,50.5,29.74,ENE,58,2.0,8.0,41,0.00,,---,0.00,VWS V14.01,2013-04-06 23:12:00,
2013-04-06 18:17:00,75.8,51.1,29.74,NNE,28,5.0,8.0,42,0.00,,---,0.00,VWS V14.01,2013-04-06 23:17:00,
2013-04-06 18:22:00,75.4,51.4,29.74,NNE,27,3.0,8.0,43,0.00,,---,0.00,VWS V14.01,2013-04-06 23:22:00,
2013-04-06 18:27:00,75.3,51.9,29.74,NNE,16,3.0,8.0,44,0.00,,---,0.00,VWS V14.01,2013-04-06 23:27:00,
2013-04-06 18:33:00,75.1,51.7,29.74,NE,34,4.0,6.0,44,0.00,,---,0.00,VWS V14.01,2013-04-06 23:33:00,
2013-04-06 18:38:00,75.0,51.6,29.75,NNE,33,5.0,7.0,44,0.00,,---,0.00,VWS V14.01,2013-04-06 23:38:00,
2013-04-06 18:43:00,74.9,51.5,29.75,NNE,22,6.0,9.0,44,0.00,,---,0.00,VWS V14.01,2013-04-06 23:43:00,
2013-04-06 18:48:00,74.7,52.0,29.75,NE,34,3.0,9.0,45,0.00,,---,0.00,VWS V14.01,2013-04-06 23:48:00,
2013-04-06 18:53:00,74.7,52.0,29.75,NE,34,6.0,9.0,45,0.00,,---,0.00,VWS V14.01,2013-04-06 23:53:00,
2013-04-06 18:58:00,74.6,51.9,29.75,NE,34,5.0,9.0,45,0.00,,---,0.00,VWS V14.01,2013-04-06 23:58:00,
2013-04-06 19:03:00,74.4,51.7,29.75,NNE,31,5.0,7.0,45,0.00,,---,0.00,VWS V14.01,2013-04-07 00:03:00,
2013-04-06 19:09:00,74.0,51.3,29.75,NE,41,6.0,7.0,45,0.00,,---,0.00,VWS V14.01,2013-04-07 00:09:00,
2013-04-06 19:14:00,73.8,51.2,29.75,NNE,21,4.0,7.0,45,0.00,,---,0.00,VWS V14.01,2013-04-07 00:14:00,
2013-04-06 19:19:00,73.4,52.0,29.74,NE,37,6.0,7.0,47,0.00,,---,0.00,VWS V14.01,2013-04-07 00:19:00,
2013-04-06 19:24:00,73.0,51.6,29.74,NE,40,3.0,7.0,47,0.00,,---,0.00,VWS V14.01,2013-04-07 00:24:00,
2013-04-06 19:29:00,72.6,51.8,29.74,NNE,33,4.0,7.0,48,0.00,,---,0.00,VWS V14.01,2013-04-07 00:29:00,
2013-04-06 19:34:00,72.0,52.4,29.74,NNE,24,4.0,5.0,50,0.00,,---,0.00,VWS V14.01,2013-04-07 00:34:00,
2013-04-06 19:39:00,71.3,51.7,29.74,NNE,25,4.0,5.0,50,0.00,,---,0.00,VWS V14.01,2013-04-07 00:39:00,
2013-04-06 19:45:00,70.8,52.3,29.74,North,354,4.0,6.0,52,0.00,,---,0.00,VWS V14.01,2013-04-07 00:45:00,
2013-04-06 19:50:00,69.8,51.9,29.74,North,5,2.0,6.0,53,0.00,,---,0.00,VWS V14.01,2013-04-07 00:50:00,
2013-04-06 19:55:00,69.7,52.3,29.74,North,9,2.0,6.0,54,0.00,,---,0.00,VWS V14.01,2013-04-07 00:55:00,
2013-04-06 20:00:00,69.6,52.7,29.75,North,352,2.0,6.0,55,0.00,,---,0.00,VWS V14.01,2013-04-07 01:00:00,
2013-04-06 20:05:00,69.2,52.8,29.75,North,11,3.0,4.0,56,0.00,,---,0.00,VWS V14.01,2013-04-07 01:05:00,
2013-04-06 20:10:00,68.9,52.6,29.74,NE,41,3.0,4.0,56,0.00,,---,0.00,VWS V14.01,2013-04-07 01:10:00,
2013-04-06 20:15:00,68.9,52.1,29.74,NE,38,4.0,5.0,55,0.00,,---,0.00,VWS V14.01,2013-04-07 01:15:00,
2013-04-06 20:20:00,68.9,52.1,29.73,NE,37,3.0,5.0,55,0.00,,---,0.00,VWS V14.01,2013-04-07 01:20:00,
2013-04-06 20:25:00,68.9,52.1,29.74,NE,39,4.0,5.0,55,0.00,,---,0.00,VWS V14.01,2013-04-07 01:25:00,
2013-04-06 20:30:00,68.8,52.5,29.74,NE,47,3.0,7.0,56,0.00,,---,0.00,VWS V14.01,2013-04-07 01:30:00,
2013-04-06 20:35:00,68.3,53.0,29.74,ENE,73,2.0,4.0,58,0.00,,---,0.00,VWS V14.01,2013-04-07 01:35:00,
2013-04-06 20:41:00,67.3,53.4,29.74,NE,54,2.0,4.0,61,0.00,,---,0.00,VWS V14.01,2013-04-07 01:41:00,
2013-04-06 20:46:00,66.8,53.4,29.74,ENE,70,2.0,4.0,62,0.00,,---,0.00,VWS V14.01,2013-04-07 01:46:00,
2013-04-06 20:51:00,66.5,53.1,29.74,NE,54,4.0,4.0,62,0.00,,---,0.00,VWS V14.01,2013-04-07 01:51:00,
2013-04-06 20:56:00,66.3,52.9,29.75,NE,51,3.0,4.0,62,0.00,,---,0.00,VWS V14.01,2013-04-07 01:56:00,
2013-04-06 21:01:00,66.2,52.8,29.75,NE,49,1.0,2.0,62,0.00,,---,0.00,VWS V14.01,2013-04-07 02:01:00,
2013-04-06 21:06:00,66.1,53.2,29.76,NE,44,1.0,4.0,63,0.00,,---,0.00,VWS V14.01,2013-04-07 02:06:00,
2013-04-06 21:11:00,65.7,52.8,29.76,ENE,68,1.0,4.0,63,0.00,,---,0.00,VWS V14.01,2013-04-07 02:11:00,
2013-04-06 21:16:00,65.3,52.8,29.76,ENE,64,2.0,4.0,64,0.00,,---,0.00,VWS V14.01,2013-04-07 02:16:00,
2013-04-06 21:21:00,65.0,53.0,29.76,East,79,2.0,4.0,65,0.00,,---,0.00,VWS V14.01,2013-04-07 02:21:00,
2013-04-06 21:27:00,64.9,52.9,29.76,ENE,75,2.0,4.0,65,0.00,,---,0.00,VWS V14.01,2013-04-07 02:27:00,
2013-04-06 21:32:00,64.9,52.9,29.76,ENE,70,1.0,2.0,65,0.00,,---,0.00,VWS V14.01,2013-04-07 02:32:00,
2013-04-06 21:38:00,64.8,52.8,29.76,ENE,61,2.0,3.0,65,0.00,,---,0.00,VWS V14.01,2013-04-07 02:38:00,
2013-04-06 21:43:00,64.6,53.0,29.76,ENE,64,2.0,3.0,66,0.00,,---,0.00,VWS V14.01,2013-04-07 02:43:00,
2013-04-06 21:48:00,64.3,52.7,29.76,ENE,70,1.0,3.0,66,0.00,,---,0.00,VWS V14.01,2013-04-07 02:48:00,
2013-04-06 21:53:00,64.0,52.8,29.77,ENE,69,1.0,3.0,67,0.00,,---,0.00,VWS V14.01,2013-04-07 02:53:00,
2013-04-06 21:58:00,63.7,52.5,29.77,ENE,70,0.0,3.0,67,0.00,,---,0.00,VWS V14.01,2013-04-07 02:58:00,
2013-04-06 22:03:00,63.3,52.6,29.77,ENE,69,1.0,1.0,68,0.00,,---,0.00,VWS V14.01,2013-04-07 03:03:00,
2013-04-06 22:09:00,61.9,53.2,29.78,NNW,342,2.0,3.0,73,0.00,,---,0.00,VWS V14.01,2013-04-07 03:09:00,
2013-04-06 22:14:00,60.7,53.1,29.78,NNW,335,2.0,3.0,76,0.00,,---,0.00,VWS V14.01,2013-04-07 03:14:00,
2013-04-06 22:19:00,60.8,52.5,29.78,NNE,15,3.0,4.0,74,0.00,,---,0.00,VWS V14.01,2013-04-07 03:19:00,
2013-04-06 22:25:00,61.7,52.6,29.78,NNE,31,3.0,4.0,72,0.00,,---,0.00,VWS V14.01,2013-04-07 03:25:00,
2013-04-06 22:30:00,61.9,52.4,29.77,NE,48,3.0,5.0,71,0.00,,---,0.00,VWS V14.01,2013-04-07 03:30:00,
2013-04-06 22:35:00,62.0,52.5,29.78,NE,40,4.0,4.0,71,0.00,,---,0.00,VWS V14.01,2013-04-07 03:35:00,
2013-04-06 22:40:00,62.1,52.6,29.78,NNE,19,4.0,6.0,71,0.00,,---,0.00,VWS V14.01,2013-04-07 03:40:00,
2013-04-06 22:46:00,61.8,52.7,29.78,NE,36,3.0,6.0,72,0.00,,---,0.00,VWS V14.01,2013-04-07 03:46:00,
2013-04-06 22:51:00,61.3,52.6,29.78,North,1,3.0,6.0,73,0.00,,---,0.00,VWS V14.01,2013-04-07 03:51:00,
2013-04-06 22:56:00,60.2,52.3,29.78,NNW,342,2.0,6.0,75,0.00,,---,0.00,VWS V14.01,2013-04-07 03:56:00,
2013-04-06 23:00:00,59.8,51.9,29.78,North,359,4.0,6.0,75,0.00,,---,0.00,VWS V14.01,2013-04-07 04:00:00,
2013-04-06 23:01:00,59.9,52.0,29.79,North,353,4.0,5.0,75,0.00,,---,0.00,VWS V14.01,2013-04-07 04:01:00,
2013-04-06 23:03:00,59.9,52.0,29.78,North,356,3.0,5.0,75,0.00,,---,0.00,VWS V14.01,2013-04-07 04:03:00,
2013-04-06 23:08:00,59.6,52.4,29.78,North,359,4.0,6.0,77,0.00,,---,0.00,VWS V14.01,2013-04-07 04:08:00,
2013-04-06 23:13:00,59.4,52.2,29.78,North,8,4.0,6.0,77,0.00,,---,0.00,VWS V14.01,2013-04-07 04:13:00,
2013-04-06 23:18:00,59.0,52.2,29.78,NNE,22,4.0,6.0,78,0.00,,---,0.00,VWS V14.01,2013-04-07 04:18:00,
2013-04-06 23:23:00,58.6,52.1,29.78,NNE,22,3.0,6.0,79,0.00,,---,0.00,VWS V14.01,2013-04-07 04:23:00,
2013-04-06 23:28:00,58.1,52.0,29.78,North,356,4.0,6.0,80,0.00,,---,0.00,VWS V14.01,2013-04-07 04:28:00,
2013-04-06 23:33:00,57.7,51.9,29.78,NNE,16,7.0,7.0,81,0.00,,---,0.00,VWS V14.01,2013-04-07 04:33:00,
2013-04-06 23:38:00,57.5,52.1,29.77,North,354,5.0,7.0,82,0.00,,---,0.00,VWS V14.01,2013-04-07 04:38:00,
2013-04-06 23:43:00,57.1,51.7,29.77,NNE,15,5.0,7.0,82,0.00,,---,0.00,VWS V14.01,2013-04-07 04:43:00,
2013-04-06 23:48:00,56.7,51.6,29.77,North,1,4.0,7.0,83,0.00,,---,0.00,VWS V14.01,2013-04-07 04:48:00,
2013-04-06 23:53:00,56.5,51.4,29.77,NNW,346,3.0,7.0,83,0.00,,---,0.00,VWS V14.01,2013-04-07 04:53:00,
2013-04-06 23:59:00,56.1,51.3,29.77,North,11,3.0,7.0,84,0.00,,---,0.00,VWS V14.01,2013-04-07 04:59:00,